Latest Weather Observations for Warwick

IDQ60901

Issued at 9:51 pm EST Monday 25 July 2016 (issued every 10 minutes, with the page automatically refreshed every 10 minutes)

About weather observations | Map of Brisbane area stations | Latest observations for Brisbane area | Other Formats
Station Details ID: 041525 Name: WARWICK Lat: -28.21 Lon: 152.10 Height: 475.4 m
Data from the previous 72 hours. | See also: Recent months at Warwick
Date/Time
EST
Temp
°C
App
Temp
°C
Dew
Point
°C
Rel
Hum
%
Delta-T
°C
Wind Press
QNH
hPa
Press
MSL
hPa
Rain since
9am
mm
Dir  Spd
km/h
Gust
km/h
Spd
kts
Gust
kts
25/09:30pm 10.3 7.6 3.9 64 2.9 WNW 7 11 4 6 1019.1 1019.3 0.0
25/09:00pm 10.4 7.9 4.5 67 2.7 W 7 13 4 7 1019.1 1019.3 0.0
25/08:30pm 10.9 7.9 4.1 63 3.1 W 9 11 5 6 1019.1 1019.3 0.0
25/08:00pm 11.1 8.5 4.4 63 3.1 W 7 11 4 6 1018.9 1019.0 0.0
25/07:30pm 11.7 8.5 3.3 56 3.8 WNW 9 15 5 8 1018.5 1018.6 0.0
25/07:00pm 11.9 8.8 3.6 57 3.8 WNW 9 13 5 7 1018.3 1018.4 0.0
25/06:30pm 11.9 9.2 3.8 57 3.7 WNW 7 11 4 6 1018.1 1018.2 0.0
25/06:00pm 12.0 9.0 4.2 59 3.6 WNW 9 13 5 7 1017.7 1017.8 0.0
25/05:30pm 12.5 9.6 4.4 58 3.8 W 9 13 5 7 1017.5 1017.6 0.0
25/05:00pm 13.6 10.7 4.7 55 4.2 WSW 9 17 5 9 1017.0 1017.1 0.0
25/04:30pm 15.6 11.6 2.9 42 5.9 W 13 20 7 11 1016.8 1016.9 0.0
25/04:00pm 16.3 12.3 3.0 41 6.2 WSW 13 19 7 10 1016.6 1016.7 0.0
25/03:30pm 16.4 11.1 2.0 38 6.6 WSW 19 30 10 16 1016.5 1016.6 0.0
25/03:00pm 16.9 12.0 2.2 37 6.8 WSW 17 28 9 15 1016.4 1016.5 0.0
25/02:30pm 16.8 11.8 1.4 35 7.0 WSW 17 30 9 16 1016.4 1016.5 0.0
25/02:00pm 16.6 11.3 2.0 37 6.7 W 19 28 10 15 1016.6 1016.7 0.0
25/01:30pm 16.9 11.7 2.2 37 6.8 SW 19 32 10 17 1016.7 1016.8 0.0
25/01:00pm 16.2 10.6 1.3 36 6.7 WSW 20 32 11 17 1017.1 1017.2 0.0
25/12:30pm 16.0 10.4 1.0 36 6.7 WSW 20 32 11 17 1017.3 1017.3 0.0
25/12:00pm 16.0 10.7 1.6 37 6.5 WSW 19 28 10 15 1017.8 1017.9 0.0
25/11:30am 15.2 8.8 1.0 38 6.3 SW 24 35 13 19 1018.1 1018.2 0.0
25/11:00am 15.1 9.7 1.2 39 6.2 WSW 19 26 10 14 1018.7 1018.8 0.0
25/10:30am 14.2 10.1 2.2 44 5.4 W 13 24 7 13 1018.9 1019.0 0.0
25/10:00am 13.2 9.2 3.1 50 4.6 W 13 20 7 11 1019.1 1019.3 0.0
25/09:30am 12.8 9.2 2.8 50 4.5 WNW 11 22 6 12 1019.2 1019.4 0.0
25/09:00am 11.8 8.2 2.9 54 4.0 WNW 11 17 6 9 1019.5 1019.6 0.0
25/08:30am 10.8 8.3 3.5 60 3.3 W 6 11 3 6 1019.2 1019.4 0.0
25/08:00am 9.3 8.0 4.0 69 2.4 CALM 0 4 0 2 1019.0 1019.1 0.0
25/07:30am 7.3 5.9 3.4 76 1.7 CALM 0 4 0 2 1018.9 1019.0 0.0
25/07:00am 6.6 3.9 2.9 77 1.6 NW 6 9 3 5 1018.7 1018.8 0.0
25/06:30am 7.3 4.1 3.1 75 1.8 WNW 9 11 5 6 1018.4 1018.5 0.0
25/06:00am 6.6 3.8 3.4 80 1.4 WNW 7 11 4 6 1018.1 1018.2 0.0
25/05:30am 6.2 4.5 1.9 74 1.8 CALM 0 6 0 3 1017.8 1017.9 0.0
25/05:00am 7.6 5.0 3.2 74 1.9 W 6 9 3 5 1017.6 1017.7 0.0
25/04:30am 7.8 5.2 3.2 73 2.0 W 6 11 3 6 1017.4 1017.5 0.0
25/04:00am 8.4 5.6 3.4 71 2.2 W 7 13 4 7 1016.9 1017.0 0.0
25/03:30am 9.6 6.3 2.5 61 3.1 W 9 15 5 8 1016.9 1017.0 0.0
25/03:00am 10.1 7.1 2.3 58 3.4 W 7 15 4 8 1016.9 1017.0 0.0
25/02:30am 9.7 6.9 2.9 62 3.0 WNW 7 11 4 6 1016.9 1017.0 0.0
25/02:00am 9.9 6.2 2.3 59 3.3 WNW 11 13 6 7 1016.9 1017.0 0.0
25/01:30am 10.3 6.5 2.0 56 3.6 WNW 11 15 6 8 1017.0 1017.1 0.0
25/01:00am 10.8 7.0 1.5 52 4.0 WNW 11 19 6 10 1016.9 1017.0 0.0
25/12:30am 10.8 6.6 1.8 54 3.9 WNW 13 19 7 10 1016.8 1016.9 0.0
25/12:00am 10.6 6.8 1.8 54 3.8 WNW 11 17 6 9 1016.9 1017.0 0.0
 
Date/Time
EST
Temp
°C
App
Temp
°C
Dew
Point
°C
Rel
Hum
%
Delta-T
°C
Wind Press
QNH
hPa
Press
MSL
hPa
Rain since
9am
mm
Dir  Spd
km/h
Gust
km/h
Spd
kts
Gust
kts
24/11:30pm 11.1 7.7 1.9 53 4.0 WNW 9 15 5 8 1016.8 1016.9 0.0
24/11:00pm 10.4 7.5 2.7 59 3.4 WNW 7 9 4 5 1016.7 1016.8 0.0
24/10:30pm 11.3 8.6 2.5 54 3.9 NW 6 7 3 4 1016.7 1016.8 0.0
24/10:00pm 11.5 8.8 2.8 55 3.9 WNW 6 9 3 5 1016.6 1016.7 0.0
24/09:30pm 11.8 8.8 2.0 51 4.3 WNW 7 13 4 7 1016.5 1016.6 0.0
24/09:00pm 11.3 9.9 3.3 58 3.6 CALM 0 0 0 0 1016.4 1016.5 0.0
24/08:30pm 12.2 9.4 2.3 51 4.4 NNW 6 7 3 4 1015.9 1016.0 0.0
24/08:00pm 12.1 9.1 2.2 50 4.4 WNW 7 9 4 5 1015.9 1016.0 0.0
24/07:30pm 11.7 8.8 2.5 53 4.1 WNW 7 11 4 6 1015.5 1015.6 0.0
24/07:00pm 11.5 8.6 2.8 55 3.9 W 7 11 4 6 1015.7 1015.8 0.0
24/06:30pm 12.3 9.0 2.5 51 4.4 WSW 9 17 5 9 1015.1 1015.1 0.0
24/06:00pm 13.3 9.9 1.8 45 5.1 W 9 13 5 7 1014.8 1014.9 0.0
24/05:30pm 13.8 9.9 1.4 43 5.5 WSW 11 15 6 8 1014.8 1014.9 0.0
24/05:00pm 15.6 11.2 0.4 35 6.7 W 13 20 7 11 1014.2 1014.3 0.0
24/04:30pm 16.8 12.2 -0.7 30 7.6 W 13 22 7 12 1013.8 1013.9 0.0
24/04:00pm 17.0 12.5 -0.3 31 7.6 WNW 13 19 7 10 1013.5 1013.5 0.0
24/03:30pm 17.1 11.8 -0.5 30 7.7 NW 17 24 9 13 1013.5 1013.5 0.0
24/03:00pm 18.2 13.3 -0.6 28 8.3 WNW 15 24 8 13 1013.4 1013.4 0.0
24/02:30pm 18.0 13.4 -1.4 26 8.4 WNW 13 20 7 11 1013.6 1013.6 0.0
24/02:00pm 18.0 12.9 -1.8 26 8.5 NW 15 24 8 13 1014.1 1014.2 0.0
24/01:30pm 17.7 12.9 -2.4 25 8.5 NW 13 20 7 11 1014.3 1014.4 0.0
24/01:00pm 17.5 12.3 -2.8 25 8.5 NNW 15 22 8 12 1014.6 1014.7 0.0
24/12:30pm 17.5 13.2 -2.0 26 8.3 NW 11 19 6 10 1015.1 1015.1 0.0
24/12:00pm 17.0 13.6 1.7 35 7.0 NW 9 15 5 8 1015.6 1015.7 0.0
24/11:30am 16.1 12.9 3.0 41 6.1 WSW 9 13 5 7 1015.8 1015.9 0.0
24/11:00am 14.1 11.5 3.0 47 5.1 SW 6 11 3 6 1016.5 1016.6 0.0
24/10:30am 13.7 11.5 3.3 49 4.8 S 4 9 2 5 1016.9 1017.0 0.0
24/10:00am 12.8 11.2 2.3 49 4.7 CALM 0 0 0 0 1016.9 1017.0 0.0
24/09:30am 10.3 8.9 3.4 62 3.1 CALM 0 0 0 0 1016.9 1017.0 0.0
24/09:00am 9.1 7.6 3.2 66 2.6 CALM 0 7 0 4 1017.4 1017.5 0.0
24/08:30am 8.4 6.6 3.4 71 2.2 NE 2 6 1 3 1017.0 1017.1 0.0
24/08:00am 7.0 5.5 3.1 76 1.7 CALM 0 0 0 0 1016.9 1017.0 0.0
24/07:30am 6.0 4.6 3.5 84 1.1 CALM 0 0 0 0 1016.5 1016.6 0.0
24/07:00am 5.4 3.9 2.8 83 1.1 CALM 0 0 0 0 1016.1 1016.2 0.0
24/06:30am 5.6 4.1 3.0 83 1.1 CALM 0 0 0 0 1015.7 1015.8 0.0
24/06:00am 5.1 3.7 3.5 89 0.7 CALM 0 0 0 0 1016.1 1016.2 0.0
24/05:30am 5.8 4.3 3.0 82 1.2 CALM 0 0 0 0 1015.6 1015.7 0.0
24/05:00am 5.2 3.7 3.1 86 0.9 CALM 0 0 0 0 1015.2 1015.2 0.0
24/04:30am 5.1 3.6 3.2 87 0.8 CALM 0 0 0 0 1014.7 1014.8 0.0
24/04:00am 5.3 3.9 3.7 89 0.7 CALM 0 0 0 0 1014.5 1014.6 0.0
24/03:30am 7.1 5.6 2.9 74 1.8 CALM 0 0 0 0 1014.8 1014.9 0.0
24/03:00am 7.3 3.9 1.8 68 2.3 NNE 9 9 5 5 1015.4 1015.4 0.0
24/02:30am 7.1 5.7 3.4 77 1.6 CALM 0 0 0 0 1015.2 1015.2 0.0
24/02:00am 5.2 3.3 0.7 73 1.8 CALM 0 0 0 0 1015.3 1015.3 0.0
24/01:30am 3.8 2.0 1.0 82 1.1 CALM 0 6 0 3 1015.4 1015.4 0.0
24/01:00am 7.3 5.6 1.6 67 2.4 CALM 0 7 0 4 1015.6 1015.7 0.0
24/12:30am 4.6 2.1 1.7 81 1.2 SW 4 9 2 5 1015.6 1015.7 0.0
24/12:00am 8.2 5.6 3.4 72 2.1 W 6 9 3 5 1015.3 1015.3 0.0
 
Date/Time
EST
Temp
°C
App
Temp
°C
Dew
Point
°C
Rel
Hum
%
Delta-T
°C
Wind Press
QNH
hPa
Press
MSL
hPa
Rain since
9am
mm
Dir  Spd
km/h
Gust
km/h
Spd
kts
Gust
kts
23/11:30pm 8.4 5.8 3.2 70 2.3 WSW 6 9 3 5 1015.2 1015.2 0.0
23/11:00pm 8.9 7.5 3.8 70 2.3 CALM 0 0 0 0 1015.1 1015.1 0.0
23/10:30pm 9.5 6.4 3.7 67 2.6 W 9 13 5 7 1014.9 1015.0 0.0
23/10:00pm 9.9 7.6 4.7 70 2.4 W 6 9 3 5 1015.3 1015.3 0.0
23/09:30pm 11.0 8.1 4.8 65 2.9 W 9 15 5 8 1014.8 1014.9 0.0
23/09:00pm 11.0 8.1 4.8 65 2.9 W 9 15 5 8 1014.6 1014.7 0.0
23/08:30pm 11.5 8.6 4.6 62 3.2 W 9 11 5 6 1014.5 1014.6 0.0
23/08:00pm 11.6 9.1 4.8 63 3.2 W 7 11 4 6 1014.3 1014.4 0.0
23/07:30pm 11.9 9.4 4.9 62 3.3 W 7 9 4 5 1014.1 1014.2 0.0
23/07:00pm 12.7 9.7 4.1 56 4.0 W 9 15 5 8 1013.7 1013.8 0.0
23/06:30pm 13.2 10.3 4.8 56 4.0 W 9 15 5 8 1013.0 1013.0 0.0
23/06:00pm 14.6 9.9 3.4 47 5.2 WSW 17 26 9 14 1013.1 1013.1 0.0
23/05:30pm 15.7 11.7 4.7 48 5.3 W 15 32 8 17 1012.0 1012.1 0.0
23/05:00pm 16.7 12.5 5.6 48 5.5 WSW 17 30 9 16 1011.6 1011.6 0.0
23/04:30pm 18.3 13.5 5.5 43 6.4 WSW 20 32 11 17 1011.4 1011.4 0.0
23/04:00pm 19.4 14.6 5.8 41 6.9 W 20 35 11 19 1010.8 1010.8 0.0
23/03:30pm 20.4 15.6 7.2 42 6.9 W 22 39 12 21 1010.7 1010.7 0.0
23/03:00pm 20.8 15.7 7.8 43 6.9 W 24 43 13 23 1010.4 1010.5 0.0
23/02:30pm 21.1 15.7 8.2 43 6.9 WSW 26 39 14 21 1010.2 1010.3 0.0
23/02:00pm 21.8 16.4 8.2 41 7.3 WSW 26 44 14 24 1010.0 1010.0 0.0
23/01:30pm 22.1 16.4 8.4 41 7.4 W 28 46 15 25 1010.0 1010.0 0.0
23/01:28pm 21.8 16.0 8.0 41 7.4 W 28 46 15 25 1010.0 1010.0 0.0
23/01:00pm 22.8 18.4 10.3 45 7.0 W 24 39 13 21 1010.1 1010.2 0.0
23/12:31pm 22.5 17.5 10.8 47 6.6 W 28 46 15 25 1010.3 1010.4 0.0
23/12:30pm 22.4 16.9 10.5 47 6.7 W 30 46 16 25 1010.3 1010.4 0.0
23/12:05pm 21.8 16.8 11.0 50 6.1 W 28 46 15 25 1010.4 1010.5 0.0
23/12:00pm 22.6 18.2 11.8 50 6.2 WSW 26 41 14 22 1010.3 1010.4 0.0
23/11:30am 22.1 17.8 12.2 53 5.7 W 26 43 14 23 1010.7 1010.7 0.0
23/11:19am 22.4 17.7 12.0 51 6.0 W 28 46 15 25 1010.7 1010.7 0.0
23/11:00am 22.1 17.7 11.8 52 5.9 W 26 43 14 23 1010.8 1010.8 0.0
23/10:31am 22.0 17.3 12.1 53 5.7 W 28 46 15 25 1010.8 1010.8 0.0
23/10:30am 22.0 17.7 12.1 53 5.7 W 26 46 14 25 1010.8 1010.8 0.0
23/10:29am 21.9 17.3 12.2 54 5.6 W 28 46 15 25 1010.8 1010.8 0.0
23/10:00am 21.3 16.7 12.3 56 5.2 W 28 39 15 21 1010.9 1010.9 0.0
23/09:30am 20.9 17.5 13.8 64 4.2 W 24 41 13 22 1011.1 1011.1 0.0
23/09:00am 19.8 15.9 14.4 71 3.2 WNW 28 43 15 23 1011.0 1011.0 0.2
23/08:30am 19.0 16.1 15.0 77 2.4 WNW 24 35 13 19 1011.0 1011.0 0.2
23/08:00am 18.2 15.3 15.2 82 1.8 NW 24 33 13 18 1010.7 1010.7 0.2
23/07:30am 17.8 14.9 15.1 84 1.6 NNW 24 37 13 20 1010.8 1010.8 0.2
23/07:00am 17.5 15.4 15.2 86 1.4 NW 20 32 11 17 1010.8 1010.8 0.2
23/06:30am 17.9 15.8 15.2 84 1.6 NW 20 35 11 19 1010.7 1010.7 0.2
23/06:00am 18.1 16.0 15.3 84 1.7 NW 20 32 11 17 1010.3 1010.4 0.2
23/05:30am 18.2 15.7 15.2 82 1.8 NW 22 33 12 18 1010.0 1010.0 0.2
23/05:00am 18.4 15.5 15.2 81 1.9 NW 24 33 13 18 1010.0 1010.0 0.2
23/04:30am 18.3 15.8 15.1 81 1.9 NW 22 33 12 18 1009.8 1009.8 0.2
23/04:00am 18.6 16.1 15.1 80 2.1 NNW 22 35 12 19 1009.7 1009.7 0.2
23/03:30am 18.4 15.8 14.9 80 2.1 NW 22 32 12 17 1009.9 1009.9 0.2
23/03:00am 18.4 15.8 14.9 80 2.1 NW 22 33 12 18 1010.1 1010.2 0.2
23/02:30am 18.4 16.7 14.7 79 2.2 NNW 17 26 9 14 1010.4 1010.5 0.2
23/02:00am 18.5 16.4 14.6 78 2.3 NNW 19 28 10 15 1010.8 1010.8 0.2
23/01:30am 19.0 16.8 14.4 74 2.7 NNW 19 30 10 16 1011.1 1011.1 0.2
23/01:00am 19.3 17.5 14.4 73 2.9 NW 17 30 9 16 1011.3 1011.3 0.2
23/12:30am 18.7 18.1 14.5 76 2.5 NNW 11 19 6 10 1011.6 1011.6 0.2
23/12:00am 18.7 17.6 14.3 75 2.6 NNW 13 19 7 10 1011.7 1011.7 0.2
 
Date/Time
EST
Temp
°C
App
Temp
°C
Dew
Point
°C
Rel
Hum
%
Delta-T
°C
Wind Press
QNH
hPa
Press
MSL
hPa
Rain since
9am
mm
Dir  Spd
km/h
Gust
km/h
Spd
kts
Gust
kts
22/11:30pm 18.6 16.7 14.2 75 2.6 N 17 24 9 13 1011.7 1011.7 0.2
22/11:00pm 18.7 16.8 14.1 74 2.7 N 17 22 9 12 1011.9 1012.0 0.2
22/10:30pm 19.0 17.8 14.1 73 2.9 NNW 13 19 7 10 1012.4 1012.5 0.2
22/10:00pm 19.9 18.3 13.8 68 3.6 NNW 15 22 8 12 1012.6 1012.7 0.2

Latest Capital City Observations: Canberra | Sydney | Melbourne | Brisbane | Adelaide | Perth | Hobart | Darwin

Other Formats:

Comma delimited format used in spreadsheet applications
http://www.bom.gov.au/fwo/IDQ60901/IDQ60901.94555.axf

JavaScript Object Notation format (JSON) in row-major order
http://www.bom.gov.au/fwo/IDQ60901/IDQ60901.94555.json